Weather History for KVYS - February, 2015

Change the Weather History Date:

Thursday, February 26, 2015

  Actual Average Record
Temperature  
Mean Temperature 10 °F -  
Max Temperature 19 °F 40 °F 64 °F (1976)
Min Temperature 0 °F 21 °F 0 °F (2014)
Degree Days  
Heating Degree Days 56    
Moisture  
Dew Point 6 °F    
Average Humidity 74    
Maximum Humidity 88    
Minimum Humidity 59    
Precipitation  
Precipitation 0.00 in - - ()
Sea Level Pressure  
Sea Level Pressure 30.27 in    
Wind  
Wind Speed 14 mph (North)    
Max Wind Speed 18 mph    
Max Gust Speed 22 mph    
Visibility 8 miles    
Events Snow    
Averages and records for this station are not official NWS values.
T = Trace of Precipitation, MM = Missing Value Source: NWS Daily Summary

Daily Weather History Graph

Daily Weather History Graph

Search for Another Location

Airport or City:

Trip Planner

Search our weather history database for the weather conditions in past years. The results will help you decide how hot, cold, wet, or windy it might be!

Date:

Astronomy

Feb. 26, 2015 Rise Set
Actual Time 6:36 AM CST 5:43 PM CST
Civil Twilight 6:08 AM CST 6:11 PM CST
Nautical Twilight 5:36 AM CST 6:43 PM CST
Astronomical Twilight 5:04 AM CST 7:15 PM CST
Moon 11:42 AM CST (2/26) 1:33 AM CST (2/26)
Length of Visible Light 12h 03m
Length of Day
11h 07m
First Quarter, 61% of the Moon is Illuminated
Feb 26
First Quarter
Mar 5
Full
Mar 13
Last Quarter
Mar 20
New
Mar 27
First Quarter

Hourly Weather History & Observations

Time (CST) Temp. Windchill Dew Point Humidity Pressure Visibility Wind Dir Wind Speed Gust Speed Precip Events Conditions
12:15 AM 19.4 °F 5.0 °F 16.3 °F 88% 30.04 in 4.0 mi NE 16.1 mph - N/A Snow Light Snow
12:35 AM 18.9 °F 4.8 °F 15.4 °F 87% 30.04 in 5.0 mi NNE 15.0 mph 21.9 mph N/A Snow Light Snow
12:55 AM 18.5 °F 3.8 °F 14.9 °F 86% 30.05 in 7.0 mi NNE 16.1 mph - N/A Snow Light Snow
1:15 AM 18.5 °F 3.8 °F 14.7 °F 85% 30.05 in 3.0 mi NNE 16.1 mph 20.7 mph N/A Snow Light Snow
1:35 AM 17.6 °F 3.2 °F 14.0 °F 86% 30.06 in 2.0 mi NNE 15.0 mph - N/A Snow Light Snow
1:55 AM 17.6 °F 3.7 °F 14.0 °F 86% 30.06 in 3.0 mi NNE 13.8 mph - N/A Snow Light Snow
2:10 AM 17.6 °F 3.7 °F 14.0 °F 86% 30.06 in 3.0 mi NNE 13.8 mph - N/A Snow Light Snow
2:35 AM 17.2 °F 2.2 °F 13.8 °F 86% 30.06 in 2.5 mi NNE 16.1 mph 21.9 mph N/A Snow Light Snow
2:55 AM 16.7 °F 2.0 °F 13.5 °F 87% 30.06 in 3.0 mi NNE 15.0 mph - N/A Snow Light Snow
3:15 AM 16.3 °F 0.1 °F 12.9 °F 86% 30.07 in 4.0 mi NNE 18.4 mph - N/A   Overcast
3:35 AM 16.3 °F 0.5 °F 12.7 °F 86% 30.08 in 4.0 mi NNE 17.3 mph - N/A Snow Light Snow
3:55 AM 15.8 °F 0.9 °F 12.2 °F 86% 30.09 in 2.0 mi North 15.0 mph 20.7 mph N/A Snow Light Snow
4:15 AM 15.8 °F 0.3 °F 12.2 °F 86% 30.09 in 2.5 mi North 16.1 mph 19.6 mph N/A Snow Light Snow
4:35 AM 15.8 °F 0.9 °F 12.2 °F 86% 30.10 in 2.5 mi North 15.0 mph - N/A Snow Light Snow
4:50 AM 15.8 °F 1.4 °F 12.2 °F 86% 30.10 in 4.0 mi North 13.8 mph - N/A Snow Light Snow
5:15 AM 15.3 °F 0.8 °F 11.3 °F 84% 30.12 in 3.0 mi North 13.8 mph - N/A Snow Light Snow
5:35 AM 14.9 °F 0.3 °F 11.1 °F 85% 30.13 in 7.0 mi North 13.8 mph - N/A Snow Light Snow
5:55 AM 15.3 °F 0.8 °F 10.8 °F 82% 30.14 in 5.0 mi North 13.8 mph 18.4 mph N/A   Overcast
6:15 AM 14.9 °F -0.8 °F 10.8 °F 84% 30.14 in 4.0 mi NNE 16.1 mph - N/A   Overcast
6:35 AM 14.9 °F -0.3 °F 10.4 °F 82% 30.15 in 4.0 mi NNE 15.0 mph 21.9 mph N/A   Haze
6:55 AM 14.5 °F -1.3 °F 10.2 °F 83% 30.16 in 4.0 mi North 16.1 mph 21.9 mph N/A   Overcast
7:15 AM 14.4 °F -1.5 °F 10.0 °F 83% 30.17 in 5.0 mi North 16.1 mph - N/A   Overcast
7:30 AM 14.0 °F -0.2 °F 10.4 °F 86% 30.18 in 10.0 mi North 12.7 mph 18.4 mph N/A   Overcast
7:55 AM 14.4 °F 0.2 °F 9.3 °F 80% 30.20 in 10.0 mi North 12.7 mph - N/A   Overcast
8:15 AM 14.5 °F -0.7 °F 8.6 °F 77% 30.22 in 10.0 mi North 15.0 mph - N/A   Overcast
8:35 AM 14.5 °F -0.2 °F 8.4 °F 77% 30.22 in 10.0 mi North 13.8 mph - N/A   Mostly Cloudy
8:55 AM 14.9 °F -0.8 °F 8.2 °F 75% 30.22 in 7.0 mi North 16.1 mph 21.9 mph N/A   Scattered Clouds
9:15 AM 14.7 °F -1.6 °F 8.4 °F 76% 30.23 in 7.0 mi NNE 17.3 mph - N/A   Scattered Clouds
9:35 AM 14.5 °F -0.7 °F 7.7 °F 74% 30.24 in 10.0 mi North 15.0 mph 20.7 mph N/A   Mostly Cloudy
9:55 AM 14.7 °F 0.1 °F 7.5 °F 73% 30.25 in 10.0 mi North 13.8 mph 18.4 mph N/A   Overcast
10:15 AM 14.7 °F 0.7 °F 7.3 °F 73% 30.25 in 10.0 mi North 12.7 mph - N/A   Scattered Clouds
10:35 AM 15.3 °F 1.4 °F 7.7 °F 72% 30.26 in 10.0 mi North 12.7 mph 16.1 mph N/A   Clear
10:55 AM 16.2 °F 4.7 °F 7.7 °F 69% 30.27 in 10.0 mi North 9.2 mph - N/A   Scattered Clouds
11:15 AM 16.7 °F 2.6 °F 7.7 °F 68% 30.28 in 10.0 mi North 13.8 mph 17.3 mph N/A   Mostly Cloudy
11:35 AM 15.8 °F 0.3 °F 6.8 °F 68% 30.29 in 10.0 mi North 16.1 mph - N/A   Overcast
11:55 AM 16.3 °F 2.1 °F 7.9 °F 69% 30.29 in 10.0 mi North 13.8 mph 18.4 mph N/A   Overcast
12:15 PM 16.3 °F 2.1 °F 7.9 °F 69% 30.29 in 10.0 mi North 13.8 mph 17.3 mph N/A   Overcast
12:35 PM 16.7 °F 3.8 °F 7.7 °F 68% 30.29 in 10.0 mi North 11.5 mph - N/A   Overcast
12:55 PM 16.7 °F 3.2 °F 7.7 °F 68% 30.28 in 10.0 mi North 12.7 mph - N/A   Overcast
1:15 PM 16.3 °F 1.6 °F 7.3 °F 68% 30.29 in 10.0 mi NNW 15.0 mph - N/A   Overcast
1:35 PM 16.7 °F 2.0 °F 7.2 °F 66% 30.29 in 10.0 mi NNW 15.0 mph - N/A   Mostly Cloudy
1:50 PM 16.7 °F 3.2 °F 6.8 °F 65% 30.30 in 10.0 mi North 12.7 mph - N/A   Scattered Clouds
2:15 PM 16.5 °F 2.4 °F 5.2 °F 61% 30.30 in 10.0 mi North 13.8 mph - N/A   Clear
2:35 PM 15.8 °F 2.1 °F 4.8 °F 62% 30.31 in 10.0 mi North 12.7 mph 18.4 mph N/A   Scattered Clouds
2:55 PM 15.8 °F 1.4 °F 4.5 °F 61% 30.32 in 10.0 mi North 13.8 mph - N/A   Overcast
3:15 PM 16.3 °F 2.1 °F 5.0 °F 61% 30.33 in 10.0 mi North 13.8 mph - N/A   Overcast
3:35 PM 16.0 °F 1.1 °F 4.8 °F 61% 30.33 in 10.0 mi North 15.0 mph - N/A   Overcast
3:55 PM 15.6 °F 2.5 °F 4.1 °F 60% 30.34 in 10.0 mi North 11.5 mph - N/A   Overcast
4:15 PM 15.6 °F 4.0 °F 3.7 °F 59% 30.35 in 10.0 mi North 9.2 mph - N/A   Overcast
4:35 PM 14.9 °F 0.9 °F 3.9 °F 62% 30.35 in 10.0 mi North 12.7 mph - N/A   Overcast
4:55 PM 14.4 °F 0.9 °F 3.6 °F 62% 30.36 in 10.0 mi North 11.5 mph - N/A   Overcast
5:15 PM 14.2 °F 0.0 °F 4.1 °F 64% 30.37 in 10.0 mi NNW 12.7 mph - N/A   Overcast
5:35 PM 13.3 °F -0.5 °F 2.3 °F 62% 30.38 in 10.0 mi NNW 11.5 mph - N/A   Overcast
5:55 PM 13.1 °F -0.7 °F 1.9 °F 61% 30.38 in 10.0 mi NNW 11.5 mph - N/A   Overcast
6:15 PM 12.2 °F 1.7 °F 2.3 °F 65% 30.39 in 10.0 mi NW 6.9 mph - N/A   Overcast
6:35 PM 11.8 °F 1.3 °F 2.5 °F 66% 30.40 in 10.0 mi NW 6.9 mph - N/A   Overcast
6:55 PM 10.6 °F -1.3 °F 1.6 °F 67% 30.41 in 10.0 mi NW 8.1 mph - N/A   Overcast
7:10 PM 9.3 °F -1.7 °F 1.4 °F 70% 30.41 in 10.0 mi NW 6.9 mph - N/A   Mostly Cloudy
7:35 PM 8.1 °F -3.2 °F -0.0 °F 70% 30.43 in 10.0 mi NW 6.9 mph - N/A   Scattered Clouds
7:55 PM 6.3 °F -5.4 °F -2.0 °F 69% 30.44 in 10.0 mi WNW 6.9 mph - N/A   Clear
8:15 PM 6.8 °F -4.8 °F -1.3 °F 69% 30.44 in 10.0 mi WNW 6.9 mph - N/A   Clear
8:35 PM 5.0 °F -9.1 °F -3.1 °F 69% 30.45 in 10.0 mi WNW 9.2 mph - N/A   Clear
8:55 PM 5.0 °F -9.1 °F -3.5 °F 68% 30.45 in 10.0 mi NW 9.2 mph - N/A   Clear
9:15 PM 4.1 °F -9.2 °F -4.0 °F 69% 30.46 in 10.0 mi NW 8.1 mph - N/A   Clear
9:35 PM 3.9 °F -10.4 °F -4.7 °F 67% 30.46 in 10.0 mi WNW 9.2 mph - N/A   Clear
9:55 PM 3.0 °F -11.5 °F -4.2 °F 72% 30.47 in 10.0 mi WNW 9.2 mph - N/A   Clear
10:15 PM 2.5 °F -8.6 °F -5.1 °F 71% 30.47 in 10.0 mi WNW 5.8 mph - N/A   Clear
10:35 PM 1.2 °F -11.5 °F -6.2 °F 71% 30.47 in 10.0 mi WNW 6.9 mph - N/A   Clear
10:50 PM -0.2 °F -15.5 °F -6.5 °F 75% 30.47 in 10.0 mi WNW 9.2 mph - N/A   Clear
11:15 PM 1.4 °F -13.5 °F -5.8 °F 72% 30.47 in 10.0 mi WNW 9.2 mph - N/A   Clear
11:35 PM 1.0 °F -15.8 °F -5.8 °F 73% 30.47 in 10.0 mi WNW 11.5 mph - N/A   Clear
11:55 PM 0.3 °F -16.7 °F -6.2 °F 74% 30.47 in 10.0 mi WNW 11.5 mph - N/A   Clear